Volver al catálogo

FENGYUN 1C DEB

ActivoSSO
NORAD 37012·DEBRIS·🇨🇳 China

Lanzado May 10, 1999 desde Taiyuan Satellite Launch Center

Loading…

Próximos Pases (próximas 24 horas)

TLE

EnvejeciendoSource: Space-Track

Época: Sep 7, 2026, 07:57 UTC

1 37012U 99025ECU 26250.33125386  .00001410  00000-0  84515-3 0  9996
2 37012  98.5368  96.2277 0189652 307.1991  51.1994 13.99962410627152

Sigue FENGYUN 1C DEB en tiempo real con AllMySat

Download on the App Store